Regional Weather Roundup
Issued by NWS

Home | Current Version | Previous Version | Text Only | Print | Product List | Glossary On
Versions: 1 2 3 4 5 6 7 8 9 10 11 12 13 14 15 16 17 18 19 20 21 22 23 24 25 26 27 28 29 30 31 32 33 34 35 36 37 38 39 40 41 42 43 44 45 46 47 48 49 50
000
ASUS43 KTOP 021108
RWRKS

WEATHER ROUNDUP FOR KANSAS
NATIONAL WEATHER SERVICE GOODLAND KS
600 AM CDT TUE SEP 02 2014

NOTE:  "FAIR" INDICATES FEW OR NO CLOUDS BELOW 12,000 FEET WITH NO
SIGNIFICANT WEATHER AND/OR OBSTRUCTIONS TO VISIBILITY.

KSZ001>006-013>018-027>032-041>047-021200-
NORTHWEST KANSAS

CITY           SKY/WX    TMP DP  RH WIND       PRES   REMARKS
GOODLAND       CLEAR     54  52  93 SE3       30.06S
HAYS           CLEAR     63  55  77 E7        30.00R
HILL CITY      CLEAR     58  55  90 CALM      30.00R
RUSSELL        PTCLDY    62  59  90 NE7       29.97R
$$

KSZ061>065-074>080-084>089-021200-
SOUTHWEST KANSAS

CITY           SKY/WX    TMP DP  RH WIND       PRES   REMARKS
DODGE CITY     CLOUDY    66  64  93 NE6       30.00R FOG
ELKHART          N/A     66  63  90 NW3         N/A
GARDEN CITY    MOCLDY    65  63  93 E13       30.01R FOG
GREAT BEND     MOCLDY    66  63  88 NE3       29.98R
LIBERAL        MOCLDY    68  63  83 NE7       29.97S
PRATT          CLOUDY    68  64  88 NE8       29.96R
$$

KSZ066>073-081>083-090>101-021200-
SOUTHEAST KANSAS

CITY           SKY/WX    TMP DP  RH WIND       PRES   REMARKS
CHANUTE        CLOUDY    70  68  93 SE3       29.93R
COFFEYVILLE    TSTM      68  68 100 S9        29.95R
HUTCHINSON     CLOUDY    70  67  90 NE9       29.93R
MEDICINE LODGE   N/A     67  64  90 S6        29.94R
NEWTON         CLOUDY    68  63  83 NE8       29.96R
PARSONS        CLOUDY    69  66  90 S3        29.96R
WICHITA INTL   CLOUDY    72  68  87 CALM      29.92R
WICHITA JABRA  CLOUDY    70  68  93 NE5       29.91R
WICHITA MCCONL CLOUDY    71  71 100 NE1       29.93R
WINFIELD       CLOUDY    71  70  96 CALM      29.94R
$$

KSZ007>012-019>026-033>040-048>060-102>105-021200-
NORTHEAST KANSAS

CITY           SKY/WX    TMP DP  RH WIND       PRES   REMARKS
CONCORDIA      CLEAR     58  58 100 W5        29.96R
EMPORIA        CLOUDY    70  69  97 CALM      29.93R
LAWRENCE       FOG      N/A N/A N/A CALM      29.92S VSB 1/4
MANHATTAN      MOCLDY    63  62  97 CALM      29.93S
OLATHE IND     CLOUDY    69  69 100 NE5       29.93R FOG
OLATHE EXE     CLOUDY    68  68 100 E5        29.92S FOG
SALINA         MOCLDY    68  63  84 NE6       29.94F
TOPEKA BILLARD FOG       67  67 100 NW3       29.93S VSB 1/4
TOPEKA FORBES  FOG       68  68 100 NW6       29.92S VSB<1/4
$$



USA.gov is the U.S. government's official web portal to all federal, state and local government web resources and services.